Time,TemperatureF,DewpointF,PressureIn,WindDirection,WindDirectionDegrees,WindSpeedMPH,WindSpeedGustMPH,Humidity,HourlyPrecipIn,Conditions,Clouds,dailyrainin,SolarRadiationWatts/m^2,SoftwareType,DateUTC
2013-05-17 00:00:00,67.3,67.0,30.03,South,180,0.0,1.0,99,0.00,CLR,,0.00,0.0,WeatherDisplay:10.37,2013-05-16 14:00:00,
2013-05-17 00:05:00,67.1,66.8,30.03,South,180,0.0,0.0,99,0.00,CLR,,0.00,0.0,WeatherDisplay:10.37,2013-05-16 14:05:00,
2013-05-17 00:10:00,67.1,66.8,30.03,South,180,0.0,0.0,99,0.00,CLR,,0.00,0.0,WeatherDisplay:10.37,2013-05-16 14:10:00,
2013-05-17 00:15:00,67.1,66.8,30.03,South,180,0.0,0.0,99,0.00,CLR,,0.00,0.0,WeatherDisplay:10.37,2013-05-16 14:15:00,
2013-05-17 00:20:00,67.4,67.1,30.03,South,180,0.0,3.0,99,0.00,CLR,,0.00,0.0,WeatherDisplay:10.37,2013-05-16 14:20:00,
2013-05-17 00:25:00,67.8,67.5,30.03,SE,136,2.0,3.0,99,0.00,CLR,,0.00,0.0,WeatherDisplay:10.37,2013-05-16 14:25:00,
2013-05-17 00:30:00,68.0,67.7,30.03,SE,128,2.0,3.0,99,0.00,CLR,,0.00,0.0,WeatherDisplay:10.37,2013-05-16 14:30:00,
2013-05-17 00:35:00,67.9,67.6,30.03,SSE,154,2.0,4.0,99,0.00,CLR,,0.00,0.0,WeatherDisplay:10.37,2013-05-16 14:35:00,
2013-05-17 00:40:00,67.8,67.5,30.02,South,174,0.0,2.0,99,0.00,CLR,,0.00,0.0,WeatherDisplay:10.37,2013-05-16 14:40:00,
2013-05-17 00:45:00,68.0,67.7,30.02,South,180,1.0,2.0,99,0.00,CLR,,0.00,0.0,WeatherDisplay:10.37,2013-05-16 14:45:00,
2013-05-17 00:50:00,68.2,67.9,30.02,South,180,1.0,2.0,99,0.00,CLR,,0.00,0.0,WeatherDisplay:10.37,2013-05-16 14:50:00,
2013-05-17 00:55:00,68.3,68.0,30.02,South,180,1.0,2.0,99,0.00,CLR,,0.00,0.0,WeatherDisplay:10.37,2013-05-16 14:55:00,
2013-05-17 01:00:00,68.4,68.1,30.02,South,180,1.0,2.0,99,0.00,CLR,,0.00,0.0,WeatherDisplay:10.37,2013-05-16 15:00:00,
2013-05-17 01:05:00,68.4,68.1,30.02,South,180,0.0,2.0,99,0.00,CLR,,0.00,0.0,WeatherDisplay:10.37,2013-05-16 15:05:00,
2013-05-17 01:10:00,68.4,68.1,30.02,South,180,0.0,0.0,99,0.00,CLR,,0.00,0.0,WeatherDisplay:10.37,2013-05-16 15:10:00,
2013-05-17 01:15:00,68.6,68.3,30.02,SSE,166,1.0,2.0,99,0.00,CLR,,0.00,0.0,WeatherDisplay:10.37,2013-05-16 15:15:00,
2013-05-17 01:20:00,68.8,68.5,30.02,SE,143,1.0,2.0,99,0.00,CLR,,0.00,0.0,WeatherDisplay:10.37,2013-05-16 15:20:00,
2013-05-17 01:25:00,68.9,68.6,30.02,SE,135,1.0,2.0,99,0.00,CLR,,0.00,0.0,WeatherDisplay:10.37,2013-05-16 15:25:00,
2013-05-17 01:30:00,69.1,68.8,30.02,SE,135,0.0,2.0,99,0.00,CLR,,0.00,0.0,WeatherDisplay:10.37,2013-05-16 15:30:00,
2013-05-17 01:35:00,69.1,68.8,30.01,SE,135,0.0,2.0,99,0.00,CLR,,0.00,0.0,WeatherDisplay:10.37,2013-05-16 15:35:00,
2013-05-17 01:40:00,69.3,69.0,30.01,SE,135,1.0,2.0,99,0.00,CLR,,0.00,0.0,WeatherDisplay:10.37,2013-05-16 15:40:00,
2013-05-17 01:45:00,69.4,69.1,30.01,SE,135,1.0,2.0,99,0.00,CLR,,0.00,0.0,WeatherDisplay:10.37,2013-05-16 15:45:00,
2013-05-17 01:50:00,69.4,69.1,30.01,SE,135,2.0,4.0,99,0.00,CLR,,0.00,0.0,WeatherDisplay:10.37,2013-05-16 15:50:00,
2013-05-17 01:55:00,69.3,69.1,30.01,SE,135,2.0,3.0,99,0.00,CLR,,0.00,0.0,WeatherDisplay:10.37,2013-05-16 15:55:00,
2013-05-17 02:00:00,69.3,69.0,30.01,SE,135,0.0,3.0,99,0.00,CLR,,0.00,0.0,WeatherDisplay:10.37,2013-05-16 16:00:00,
2013-05-17 02:05:00,69.3,69.0,30.01,SE,135,0.0,1.0,99,0.00,CLR,,0.00,0.0,WeatherDisplay:10.37,2013-05-16 16:05:00,
2013-05-17 02:10:00,69.3,69.0,30.01,SE,135,0.0,1.0,99,0.00,CLR,,0.00,0.0,WeatherDisplay:10.37,2013-05-16 16:10:00,
2013-05-17 02:20:00,69.4,69.1,30.00,SE,135,0.0,1.0,99,0.00,CLR,,0.00,0.0,WeatherDisplay:10.37,2013-05-16 16:20:00,
2013-05-17 02:25:00,69.4,69.1,30.00,SE,135,0.0,0.0,99,0.00,CLR,,0.00,0.0,WeatherDisplay:10.37,2013-05-16 16:25:00,
2013-05-17 02:30:00,69.4,69.1,30.00,SE,135,0.0,0.0,99,0.00,CLR,,0.00,0.0,WeatherDisplay:10.37,2013-05-16 16:30:00,
2013-05-17 02:35:00,69.4,69.1,30.00,SE,135,0.0,0.0,99,0.00,CLR,,0.00,0.0,WeatherDisplay:10.37,2013-05-16 16:35:00,
2013-05-17 02:40:00,69.4,69.1,30.00,SE,135,0.0,0.0,99,0.00,CLR,,0.00,0.0,WeatherDisplay:10.37,2013-05-16 16:40:00,
2013-05-17 02:45:00,69.6,69.3,30.00,SE,135,0.0,2.0,99,0.00,CLR,,0.00,0.0,WeatherDisplay:10.37,2013-05-16 16:45:00,
2013-05-17 02:50:00,69.8,69.2,30.00,SE,135,0.0,2.0,98,0.00,CLR,,0.00,0.0,WeatherDisplay:10.37,2013-05-16 16:50:00,
2013-05-17 02:55:00,70.0,69.4,30.00,SE,135,1.0,2.0,98,0.00,CLR,,0.00,0.0,WeatherDisplay:10.37,2013-05-16 16:55:00,
2013-05-17 03:00:00,70.0,69.4,30.00,SE,135,0.0,2.0,98,0.00,CLR,,0.00,0.0,WeatherDisplay:10.37,2013-05-16 17:00:00,
2013-05-17 03:05:00,70.0,69.4,30.00,SE,135,1.0,2.0,98,0.00,CLR,,0.00,0.0,WeatherDisplay:10.37,2013-05-16 17:05:00,
2013-05-17 03:10:00,70.0,69.4,30.00,SE,135,0.0,2.0,98,0.00,CLR,,0.00,0.0,WeatherDisplay:10.37,2013-05-16 17:10:00,
2013-05-17 03:15:00,70.0,69.4,30.00,SE,135,0.0,2.0,98,0.00,CLR,,0.00,0.0,WeatherDisplay:10.37,2013-05-16 17:15:00,
2013-05-17 03:20:00,70.2,69.6,30.00,SE,135,0.0,1.0,98,0.00,CLR,,0.00,0.0,WeatherDisplay:10.37,2013-05-16 17:20:00,
2013-05-17 03:25:00,70.2,69.6,30.00,SE,135,0.0,1.0,98,0.00,CLR,,0.00,0.0,WeatherDisplay:10.37,2013-05-16 17:25:00,
2013-05-17 03:30:00,70.0,69.4,30.00,SE,135,0.0,0.0,98,0.00,CLR,,0.00,0.0,WeatherDisplay:10.37,2013-05-16 17:30:00,
2013-05-17 03:40:00,70.0,69.4,30.00,SE,135,0.0,1.0,98,0.00,CLR,,0.00,0.0,WeatherDisplay:10.37,2013-05-16 17:40:00,
2013-05-17 03:45:00,70.0,69.4,29.99,SE,135,0.0,0.0,98,0.00,CLR,,0.00,0.0,WeatherDisplay:10.37,2013-05-16 17:45:00,
2013-05-17 03:50:00,70.0,69.4,30.00,SE,135,1.0,2.0,98,0.00,CLR,,0.00,0.0,WeatherDisplay:10.37,2013-05-16 17:50:00,
2013-05-17 03:55:00,70.0,69.4,29.99,SE,135,0.0,2.0,98,0.00,CLR,,0.00,0.0,WeatherDisplay:10.37,2013-05-16 17:55:00,
2013-05-17 04:00:00,70.0,69.4,29.99,SE,135,0.0,2.0,98,0.00,CLR,,0.00,0.0,WeatherDisplay:10.37,2013-05-16 18:00:00,
2013-05-17 04:05:00,70.2,69.6,29.99,SE,135,1.0,2.0,98,0.00,CLR,,0.00,0.0,WeatherDisplay:10.37,2013-05-16 18:05:00,
2013-05-17 04:10:00,70.2,69.6,29.99,SE,135,0.0,1.0,98,0.00,CLR,,0.00,0.0,WeatherDisplay:10.37,2013-05-16 18:10:00,
2013-05-17 04:15:00,70.2,69.6,30.00,SE,135,0.0,0.0,98,0.00,CLR,,0.00,0.0,WeatherDisplay:10.37,2013-05-16 18:15:00,
2013-05-17 04:20:00,70.2,69.6,30.00,SE,135,0.0,0.0,98,0.00,CLR,,0.00,0.0,WeatherDisplay:10.37,2013-05-16 18:20:00,
2013-05-17 04:25:00,70.2,69.6,29.99,SE,135,0.0,0.0,98,0.00,CLR,,0.00,0.0,WeatherDisplay:10.37,2013-05-16 18:25:00,
2013-05-17 04:30:00,70.2,69.6,30.00,SE,135,0.0,0.0,98,0.00,CLR,,0.00,0.0,WeatherDisplay:10.37,2013-05-16 18:30:00,
2013-05-17 04:35:00,70.0,69.4,30.00,SE,135,0.0,0.0,98,0.00,CLR,,0.00,0.0,WeatherDisplay:10.37,2013-05-16 18:35:00,
2013-05-17 04:40:00,70.0,69.4,30.00,SE,135,0.0,1.0,98,0.00,CLR,,0.00,0.0,WeatherDisplay:10.37,2013-05-16 18:40:00,
2013-05-17 04:45:00,70.0,69.4,30.00,SE,135,0.0,2.0,98,0.00,CLR,,0.00,0.0,WeatherDisplay:10.37,2013-05-16 18:45:00,
2013-05-17 04:50:00,70.0,69.4,30.00,SE,135,0.0,0.0,98,0.00,CLR,,0.00,0.0,WeatherDisplay:10.37,2013-05-16 18:50:00,
2013-05-17 04:55:00,70.0,69.4,30.00,SE,135,0.0,1.0,98,0.00,CLR,,0.00,0.0,WeatherDisplay:10.37,2013-05-16 18:55:00,
2013-05-17 05:00:00,70.2,69.6,30.00,SE,135,0.0,0.0,98,0.00,CLR,,0.00,0.0,WeatherDisplay:10.37,2013-05-16 19:00:00,
2013-05-17 05:05:00,70.2,69.6,30.00,SE,135,0.0,0.0,98,0.00,CLR,,0.00,0.0,WeatherDisplay:10.37,2013-05-16 19:05:00,
2013-05-17 05:10:00,70.2,69.6,30.00,SE,135,0.0,2.0,98,0.00,CLR,,0.00,0.0,WeatherDisplay:10.37,2013-05-16 19:10:00,
2013-05-17 05:15:00,70.3,69.7,30.00,SE,135,2.0,3.0,98,0.00,CLR,,0.00,0.0,WeatherDisplay:10.37,2013-05-16 19:15:00,
2013-05-17 05:20:00,70.3,69.7,30.00,SE,135,1.0,3.0,98,0.00,CLR,,0.00,0.0,WeatherDisplay:10.37,2013-05-16 19:20:00,
2013-05-17 05:25:00,70.2,69.6,30.00,SE,135,1.0,2.0,98,0.00,CLR,,0.00,0.0,WeatherDisplay:10.37,2013-05-16 19:25:00,
2013-05-17 05:30:00,70.3,69.7,30.00,SE,135,1.0,2.0,98,0.00,CLR,,0.00,0.0,WeatherDisplay:10.37,2013-05-16 19:30:00,
2013-05-17 05:35:00,70.3,69.7,30.00,SSE,164,1.0,3.0,98,0.00,CLR,,0.00,0.0,WeatherDisplay:10.37,2013-05-16 19:35:00,
2013-05-17 05:40:00,70.3,69.7,30.00,South,183,3.0,5.0,98,0.00,CLR,,0.00,0.0,WeatherDisplay:10.37,2013-05-16 19:40:00,
2013-05-17 05:45:00,70.2,69.6,30.00,South,182,3.0,6.0,98,0.00,CLR,,0.00,0.0,WeatherDisplay:10.37,2013-05-16 19:45:00,
2013-05-17 05:50:00,70.3,69.7,30.00,South,177,5.0,8.0,98,0.00,CLR,,0.00,0.0,WeatherDisplay:10.37,2013-05-16 19:50:00,
2013-05-17 05:55:00,70.3,69.1,30.00,South,173,3.0,7.0,96,0.00,CLR,,0.00,0.0,WeatherDisplay:10.37,2013-05-16 19:55:00,
2013-05-17 06:00:00,70.3,68.8,30.00,South,176,1.0,5.0,95,0.00,CLR,,0.00,0.0,WeatherDisplay:10.37,2013-05-16 20:00:00,
2013-05-17 06:05:00,70.3,68.8,30.00,South,180,2.0,4.0,95,0.00,CLR,,0.00,0.0,WeatherDisplay:10.37,2013-05-16 20:05:00,
2013-05-17 06:10:00,70.3,68.8,30.00,South,180,1.0,3.0,95,0.00,CLR,,0.00,0.0,WeatherDisplay:10.37,2013-05-16 20:10:00,
2013-05-17 06:15:00,70.3,68.5,30.00,South,172,1.0,3.0,94,0.00,CLR,,0.00,0.0,WeatherDisplay:10.37,2013-05-16 20:15:00,
2013-05-17 06:20:00,70.2,68.4,30.01,South,170,1.0,5.0,94,0.00,CLR,,0.00,0.0,WeatherDisplay:10.37,2013-05-16 20:20:00,
2013-05-17 06:25:00,70.2,68.4,30.01,South,179,1.0,2.0,94,0.00,CLR,,0.00,0.0,WeatherDisplay:10.37,2013-05-16 20:25:00,
2013-05-17 06:30:00,70.2,68.4,30.01,SSE,160,1.0,2.0,94,0.00,CLR,,0.00,0.0,WeatherDisplay:10.37,2013-05-16 20:30:00,
2013-05-17 06:35:00,70.2,68.4,30.01,SE,135,0.0,2.0,94,0.00,CLR,,0.00,0.0,WeatherDisplay:10.37,2013-05-16 20:35:00,
2013-05-17 06:40:00,70.2,68.4,30.01,SE,135,1.0,2.0,94,0.00,CLR,,0.00,1.3,WeatherDisplay:10.37,2013-05-16 20:40:00,
2013-05-17 06:45:00,70.0,68.2,30.01,SE,135,0.0,2.0,94,0.00,CLR,,0.00,6.4,WeatherDisplay:10.37,2013-05-16 20:45:00,
2013-05-17 06:50:00,70.0,68.2,30.02,SE,135,0.0,2.0,94,0.00,BKN,,0.00,14.9,WeatherDisplay:10.37,2013-05-16 20:50:00,
2013-05-17 06:55:00,69.8,68.3,30.02,SE,135,0.0,1.0,95,0.00,BKN,,0.00,24.1,WeatherDisplay:10.37,2013-05-16 20:55:00,
2013-05-17 07:00:00,69.8,68.3,30.02,SE,135,0.0,1.0,95,0.00,BKN,,0.00,33.7,WeatherDisplay:10.37,2013-05-16 21:00:00,
2013-05-17 07:05:00,70.0,68.5,30.02,SE,135,0.0,2.0,95,0.00,BKN,,0.00,43.4,WeatherDisplay:10.37,2013-05-16 21:05:00,
2013-05-17 07:10:00,70.2,68.7,30.03,SSE,148,1.0,2.0,95,0.00,BKN,,0.00,52.2,WeatherDisplay:10.37,2013-05-16 21:10:00,
2013-05-17 07:15:00,70.3,68.8,30.03,South,175,1.0,2.0,95,0.00,SCT,,0.00,67.7,WeatherDisplay:10.37,2013-05-16 21:15:00,
2013-05-17 07:20:00,70.5,69.0,30.03,South,180,0.0,2.0,95,0.00,FEW,,0.00,71.9,WeatherDisplay:10.37,2013-05-16 21:20:00,
2013-05-17 07:25:00,70.9,69.4,30.04,South,180,0.0,2.0,95,0.00,CLR,,0.00,76.5,WeatherDisplay:10.37,2013-05-16 21:25:00,
2013-05-17 07:30:00,71.1,69.6,30.04,South,180,0.0,2.0,95,0.00,CLR,,0.00,74.0,WeatherDisplay:10.37,2013-05-16 21:30:00,
2013-05-17 07:35:00,71.4,69.6,30.04,South,180,1.0,2.0,94,0.00,CLR,,0.00,59.0,WeatherDisplay:10.37,2013-05-16 21:35:00,
2013-05-17 07:40:00,71.6,69.5,30.04,South,180,1.0,2.0,93,0.00,CLR,,0.00,44.0,WeatherDisplay:10.37,2013-05-16 21:40:00,
2013-05-17 07:45:00,71.8,69.3,30.04,South,180,0.0,2.0,92,0.00,CLR,,0.00,29.0,WeatherDisplay:10.37,2013-05-16 21:45:00,
2013-05-17 07:50:00,72.0,69.2,30.04,South,180,0.0,2.0,91,0.00,CLR,,0.00,15.0,WeatherDisplay:10.37,2013-05-16 21:50:00,
2013-05-17 07:55:00,72.0,69.2,30.05,South,180,0.0,1.0,91,0.00,CLR,,0.00,24.5,WeatherDisplay:10.37,2013-05-16 21:55:00,
2013-05-17 08:00:00,71.8,69.0,30.05,South,180,0.0,2.0,91,0.00,OVC,,0.00,28.8,WeatherDisplay:10.37,2013-05-16 22:00:00,
2013-05-17 08:05:00,72.0,69.2,30.05,SSE,156,0.0,2.0,91,0.00,OVC,,0.00,136.9,WeatherDisplay:10.37,2013-05-16 22:05:00,
2013-05-17 08:10:00,72.3,69.6,30.05,ENE,69,1.0,3.0,91,0.00,OVC,,0.00,158.5,WeatherDisplay:10.37,2013-05-16 22:10:00,
2013-05-17 08:20:00,73.2,69.8,30.05,NE,45,1.0,2.0,89,0.00,OVC,,0.00,177.8,WeatherDisplay:10.37,2013-05-16 22:20:00,
2013-05-17 08:25:00,73.4,70.0,30.05,NE,45,1.0,2.0,89,0.00,OVC,,0.00,101.0,WeatherDisplay:10.37,2013-05-16 22:25:00,
2013-05-17 08:30:00,73.2,69.5,30.05,NE,45,1.0,2.0,88,0.00,OVC,,0.00,155.3,WeatherDisplay:10.37,2013-05-16 22:30:00,
2013-05-17 08:35:00,73.6,69.8,30.05,NE,45,1.0,3.0,88,0.00,OVC,,0.00,158.3,WeatherDisplay:10.37,2013-05-16 22:35:00,
2013-05-17 08:40:00,73.8,70.0,30.05,North,9,1.0,4.0,88,0.00,OVC,,0.00,179.1,WeatherDisplay:10.37,2013-05-16 22:40:00,
2013-05-17 08:45:00,73.9,70.2,30.05,North,349,3.0,5.0,88,0.00,OVC,,0.00,243.1,WeatherDisplay:10.37,2013-05-16 22:45:00,
2013-05-17 08:50:00,73.8,70.0,30.06,North,358,1.0,5.0,88,0.00,OVC,,0.00,237.5,WeatherDisplay:10.37,2013-05-16 22:50:00,
2013-05-17 08:55:00,74.1,70.3,30.06,North,358,2.0,5.0,88,0.00,OVC,,0.00,257.9,WeatherDisplay:10.37,2013-05-16 22:55:00,
2013-05-17 09:00:00,73.9,70.2,30.06,NNW,345,1.0,5.0,88,0.00,OVC,,0.00,299.7,WeatherDisplay:10.37,2013-05-16 23:00:00,
2013-05-17 09:05:00,74.7,70.9,30.06,North,10,2.0,5.0,88,0.00,OVC,,0.00,331.1,WeatherDisplay:10.37,2013-05-16 23:05:00,
2013-05-17 09:10:00,75.3,70.8,30.06,NE,45,1.0,3.0,86,0.00,OVC,,0.00,318.6,WeatherDisplay:10.37,2013-05-16 23:10:00,
2013-05-17 09:15:00,75.7,70.6,30.06,NE,45,1.0,4.0,84,0.00,OVC,,0.00,353.1,WeatherDisplay:10.37,2013-05-16 23:15:00,
2013-05-17 09:20:00,76.1,70.9,30.06,NE,45,1.0,4.0,84,0.00,OVC,,0.00,280.1,WeatherDisplay:10.37,2013-05-16 23:20:00,
2013-05-17 09:25:00,77.0,71.4,30.06,NE,55,1.0,2.0,83,0.00,OVC,,0.00,404.9,WeatherDisplay:10.37,2013-05-16 23:25:00,
2013-05-17 09:30:00,77.5,71.2,30.06,East,86,1.0,4.0,81,0.00,OVC,,0.00,559.8,WeatherDisplay:10.37,2013-05-16 23:30:00,
2013-05-17 09:35:00,78.6,71.2,30.06,East,90,2.0,3.0,78,0.00,OVC,,0.00,499.1,WeatherDisplay:10.37,2013-05-16 23:35:00,
2013-05-17 09:40:00,79.0,70.8,30.06,East,90,2.0,4.0,76,0.00,OVC,,0.00,510.3,WeatherDisplay:10.37,2013-05-16 23:40:00,
2013-05-17 09:45:00,79.7,71.1,30.06,East,90,0.0,3.0,75,0.00,OVC,,0.00,443.6,WeatherDisplay:10.37,2013-05-16 23:45:00,
2013-05-17 09:50:00,80.8,70.9,30.06,East,90,1.0,2.0,72,0.00,OVC,,0.00,465.1,WeatherDisplay:10.37,2013-05-16 23:50:00,
2013-05-17 09:55:00,80.8,70.5,30.06,East,90,1.0,5.0,71,0.00,OVC,,0.00,469.5,WeatherDisplay:10.37,2013-05-16 23:55:00,
2013-05-17 10:00:00,79.7,70.3,30.07,East,90,1.0,4.0,73,0.00,OVC,,0.00,498.7,WeatherDisplay:10.37,2013-05-17 00:00:00,
2013-05-17 10:05:00,79.7,70.3,30.06,ESE,116,2.0,5.0,73,0.00,OVC,,0.00,565.8,WeatherDisplay:10.37,2013-05-17 00:05:00,
2013-05-17 10:10:00,79.9,70.9,30.06,SE,142,1.0,4.0,74,0.00,OVC,,0.00,669.5,WeatherDisplay:10.37,2013-05-17 00:10:00,
2013-05-17 10:15:00,82.0,71.7,30.06,SSE,168,1.0,3.0,71,0.00,OVC,,0.00,505.0,WeatherDisplay:10.37,2013-05-17 00:15:00,
2013-05-17 10:20:00,82.0,71.3,30.06,ENE,75,1.0,3.0,70,0.00,OVC,,0.00,507.1,WeatherDisplay:10.37,2013-05-17 00:20:00,
2013-05-17 10:25:00,82.4,71.2,30.06,NE,52,1.0,4.0,69,0.00,OVC,,0.00,583.6,WeatherDisplay:10.37,2013-05-17 00:25:00,
2013-05-17 10:30:00,82.6,70.5,30.06,ESE,121,2.0,6.0,67,0.00,OVC,,0.00,546.6,WeatherDisplay:10.37,2013-05-17 00:30:00,
2013-05-17 10:35:00,81.1,70.0,30.05,SE,135,1.0,4.0,69,0.00,OVC,,0.00,591.2,WeatherDisplay:10.37,2013-05-17 00:35:00,
2013-05-17 10:40:00,81.1,69.9,30.05,SE,132,2.0,5.0,69,0.00,OVC,,0.00,694.9,WeatherDisplay:10.37,2013-05-17 00:40:00,
2013-05-17 10:45:00,81.1,70.8,30.05,SE,143,2.0,6.0,71,0.00,OVC,,0.00,1076.1,WeatherDisplay:10.37,2013-05-17 00:45:00,
2013-05-17 10:50:00,81.9,70.7,30.05,SSE,168,1.0,6.0,69,0.00,OVC,,0.00,936.4,WeatherDisplay:10.37,2013-05-17 00:50:00,
2013-05-17 10:55:00,83.6,71.0,30.05,South,169,3.0,5.0,66,0.00,OVC,,0.00,1167.9,WeatherDisplay:10.37,2013-05-17 00:55:00,
2013-05-17 11:00:00,82.6,70.1,30.04,SE,146,2.0,6.0,66,0.00,OVC,,0.00,498.5,WeatherDisplay:10.37,2013-05-17 01:00:00,
2013-05-17 11:05:00,82.0,70.4,30.04,SE,135,3.0,6.0,68,0.00,OVC,,0.00,438.6,WeatherDisplay:10.37,2013-05-17 01:05:00,
2013-05-17 11:10:00,82.3,70.7,30.04,SE,135,2.0,5.0,68,0.00,OVC,,0.00,533.3,WeatherDisplay:10.37,2013-05-17 01:10:00,
2013-05-17 11:15:00,82.4,70.8,30.03,SSW,197,1.0,4.0,68,0.00,OVC,,0.00,490.8,WeatherDisplay:10.37,2013-05-17 01:15:00,
2013-05-17 11:20:00,81.7,70.5,30.03,South,191,3.0,6.0,69,0.00,OVC,,0.00,1131.0,WeatherDisplay:10.37,2013-05-17 01:20:00,
2013-05-17 11:25:00,82.1,70.9,30.03,SSE,164,0.0,6.0,69,0.00,OVC,,0.00,561.9,WeatherDisplay:10.37,2013-05-17 01:25:00,
2013-05-17 11:30:00,82.9,70.9,30.03,SE,128,2.0,4.0,67,0.00,OVC,,0.00,394.7,WeatherDisplay:10.37,2013-05-17 01:30:00,
2013-05-17 11:35:00,82.4,70.8,30.03,SW,232,2.0,4.0,68,0.00,OVC,,0.00,493.7,WeatherDisplay:10.37,2013-05-17 01:35:00,
2013-05-17 11:40:00,81.8,70.6,30.02,SSW,200,2.0,6.0,69,0.00,OVC,,0.00,562.4,WeatherDisplay:10.37,2013-05-17 01:40:00,
2013-05-17 11:45:00,83.0,70.9,30.02,SSW,205,1.0,3.0,67,0.00,OVC,,0.00,577.1,WeatherDisplay:10.37,2013-05-17 01:45:00,
2013-05-17 11:50:00,85.1,72.1,30.02,SW,227,2.0,5.0,65,0.00,OVC,,0.00,544.2,WeatherDisplay:10.37,2013-05-17 01:50:00,
2013-05-17 11:55:00,84.4,70.9,30.01,SW,216,3.0,5.0,64,0.00,OVC,,0.00,554.5,WeatherDisplay:10.37,2013-05-17 01:55:00,
2013-05-17 12:00:00,83.3,70.8,30.02,SSW,199,3.0,6.0,66,0.00,OVC,,0.00,529.3,WeatherDisplay:10.37,2013-05-17 02:00:00,
2013-05-17 12:05:00,83.2,70.7,30.02,SSE,166,2.0,6.0,66,0.00,OVC,,0.00,1371.0,WeatherDisplay:10.37,2013-05-17 02:05:00,
2013-05-17 12:10:00,85.1,71.5,30.01,ESE,115,2.0,7.0,64,0.00,OVC,,0.00,976.9,WeatherDisplay:10.37,2013-05-17 02:10:00,
2013-05-17 12:15:00,84.5,70.5,30.01,ESE,123,2.0,7.0,63,0.00,OVC,,0.00,552.0,WeatherDisplay:10.37,2013-05-17 02:15:00,
2013-05-17 12:20:00,84.5,71.0,30.01,SE,130,3.0,6.0,64,0.00,OVC,,0.00,508.9,WeatherDisplay:10.37,2013-05-17 02:20:00,
2013-05-17 12:25:00,84.0,71.0,30.00,SE,125,3.0,6.0,65,0.00,OVC,,0.00,506.8,WeatherDisplay:10.37,2013-05-17 02:25:00,
2013-05-17 12:30:00,83.9,70.9,30.00,ESE,111,1.0,6.0,65,0.00,OVC,,0.00,749.5,WeatherDisplay:10.37,2013-05-17 02:30:00,
2013-05-17 12:35:00,85.1,71.5,30.00,ESE,119,3.0,6.0,64,0.00,OVC,,0.00,1017.5,WeatherDisplay:10.37,2013-05-17 02:35:00,
2013-05-17 12:40:00,85.7,70.2,30.00,SE,137,2.0,9.0,60,0.00,OVC,,0.00,636.1,WeatherDisplay:10.37,2013-05-17 02:40:00,
2013-05-17 12:45:00,85.5,71.0,29.99,SE,128,2.0,6.0,62,0.00,OVC,,0.00,491.1,WeatherDisplay:10.37,2013-05-17 02:45:00,
2013-05-17 12:50:00,85.3,70.8,29.99,East,93,2.0,6.0,62,0.00,OVC,,0.00,1279.0,WeatherDisplay:10.37,2013-05-17 02:50:00,
2013-05-17 12:55:00,86.5,71.0,29.99,East,85,1.0,4.0,60,0.00,OVC,,0.00,878.8,WeatherDisplay:10.37,2013-05-17 02:55:00,
2013-05-17 13:00:00,87.1,70.5,29.99,ENE,59,6.0,8.0,58,0.00,OVC,,0.00,985.1,WeatherDisplay:10.37,2013-05-17 03:00:00,
2013-05-17 13:05:00,86.1,70.1,29.99,NNE,14,5.0,8.0,59,0.00,OVC,,0.00,721.8,WeatherDisplay:10.37,2013-05-17 03:05:00,
2013-05-17 13:10:00,85.5,70.0,29.99,NNE,25,3.0,7.0,60,0.00,OVC,,0.00,916.4,WeatherDisplay:10.37,2013-05-17 03:10:00,
2013-05-17 13:15:00,85.0,70.1,29.99,NNE,32,7.0,10.0,61,0.00,OVC,,0.00,665.8,WeatherDisplay:10.37,2013-05-17 03:15:00,
2013-05-17 13:20:00,83.8,70.4,29.99,North,8,5.0,9.0,64,0.00,OVC,,0.00,563.2,WeatherDisplay:10.37,2013-05-17 03:20:00,
2013-05-17 13:25:00,83.1,70.6,29.99,North,4,7.0,8.0,66,0.00,OVC,,0.00,594.9,WeatherDisplay:10.37,2013-05-17 03:25:00,
2013-05-17 13:30:00,83.1,70.6,29.99,NNE,16,2.0,8.0,66,0.00,OVC,,0.00,561.9,WeatherDisplay:10.37,2013-05-17 03:30:00,
2013-05-17 13:35:00,83.7,70.6,29.98,NNE,33,3.0,7.0,65,0.00,OVC,,0.00,430.6,WeatherDisplay:10.37,2013-05-17 03:35:00,
2013-05-17 13:40:00,83.1,70.5,29.99,NNE,25,3.0,8.0,66,0.00,OVC,,0.00,318.1,WeatherDisplay:10.37,2013-05-17 03:40:00,
2013-05-17 13:45:00,82.0,70.9,29.98,NNE,20,5.0,8.0,69,0.00,OVC,,0.00,266.7,WeatherDisplay:10.37,2013-05-17 03:45:00,
2013-05-17 13:50:00,81.7,71.4,29.98,NNE,32,3.0,7.0,71,0.00,OVC,,0.00,239.0,WeatherDisplay:10.37,2013-05-17 03:50:00,
2013-05-17 13:55:00,81.5,71.2,29.98,NE,45,2.0,6.0,71,0.00,OVC,,0.00,182.9,WeatherDisplay:10.37,2013-05-17 03:55:00,
2013-05-17 14:00:00,81.7,71.4,29.98,NE,45,1.0,3.0,71,0.00,OVC,,0.00,128.6,WeatherDisplay:10.37,2013-05-17 04:00:00,
2013-05-17 14:05:00,81.2,70.9,29.98,NNE,19,5.0,6.0,71,0.00,OVC,,0.00,119.5,WeatherDisplay:10.37,2013-05-17 04:05:00,
2013-05-17 14:10:00,80.4,71.0,29.98,North,4,2.0,6.0,73,0.00,OVC,,0.00,120.3,WeatherDisplay:10.37,2013-05-17 04:10:00,
2013-05-17 14:15:00,80.6,71.1,29.98,North,4,1.0,3.0,73,0.00,OVC,,0.00,123.8,WeatherDisplay:10.37,2013-05-17 04:15:00,
2013-05-17 14:20:00,80.6,71.1,29.98,NNE,33,1.0,3.0,73,0.00,OVC,,0.00,143.0,WeatherDisplay:10.37,2013-05-17 04:20:00,
2013-05-17 14:25:00,80.6,71.5,29.98,ENE,73,3.0,4.0,74,0.00,OVC,,0.00,153.0,WeatherDisplay:10.37,2013-05-17 04:25:00,
2013-05-17 14:30:00,80.1,71.4,29.98,SSE,163,3.0,6.0,75,0.00,OVC,,0.00,138.1,WeatherDisplay:10.37,2013-05-17 04:30:00,
2013-05-17 14:35:00,79.2,70.6,29.98,SSE,151,6.0,7.0,75,0.00,OVC,,0.00,115.7,WeatherDisplay:10.37,2013-05-17 04:35:00,
2013-05-17 14:40:00,78.1,70.7,29.98,SE,134,6.0,10.0,78,0.00,OVC,,0.00,142.9,WeatherDisplay:10.37,2013-05-17 04:40:00,
2013-05-17 14:45:00,77.5,70.9,29.97,SE,136,5.0,8.0,80,0.00,OVC,,0.00,198.8,WeatherDisplay:10.37,2013-05-17 04:45:00,
2013-05-17 14:50:00,77.5,70.9,29.98,SSE,157,5.0,8.0,80,0.00,OVC,,0.00,255.1,WeatherDisplay:10.37,2013-05-17 04:50:00,
2013-05-17 14:55:00,77.8,72.2,29.97,SSE,147,5.0,9.0,83,0.00,OVC,,0.00,225.8,WeatherDisplay:10.37,2013-05-17 04:55:00,
2013-05-17 15:00:00,78.4,72.8,29.97,SE,136,5.0,7.0,83,0.00,OVC,,0.00,204.4,WeatherDisplay:10.37,2013-05-17 05:00:00,
2013-05-17 15:05:00,78.3,72.7,29.97,SE,138,6.0,8.0,83,0.00,OVC,,0.00,241.0,WeatherDisplay:10.37,2013-05-17 05:05:00,
2013-05-17 15:10:00,78.6,72.7,29.97,SE,128,6.0,9.0,82,0.00,OVC,,0.00,190.7,WeatherDisplay:10.37,2013-05-17 05:10:00,
2013-05-17 15:15:00,79.0,72.0,29.97,ESE,108,3.0,8.0,79,0.00,OVC,,0.00,206.1,WeatherDisplay:10.37,2013-05-17 05:15:00,
2013-05-17 15:20:00,79.2,71.3,29.97,ENE,74,2.0,8.0,77,0.00,OVC,,0.00,173.0,WeatherDisplay:10.37,2013-05-17 05:20:00,
2013-05-17 15:25:00,79.5,71.6,29.97,ENE,67,6.0,8.0,77,0.00,OVC,,0.00,183.7,WeatherDisplay:10.37,2013-05-17 05:25:00,
2013-05-17 15:30:00,79.3,71.5,29.96,East,88,3.0,8.0,77,0.00,OVC,,0.00,256.3,WeatherDisplay:10.37,2013-05-17 05:30:00,
2013-05-17 15:35:00,79.5,71.7,29.97,ENE,72,5.0,8.0,77,0.00,OVC,,0.00,238.9,WeatherDisplay:10.37,2013-05-17 05:35:00,
2013-05-17 15:45:00,79.9,71.7,29.96,NE,49,5.0,8.0,76,0.00,OVC,,0.00,714.4,WeatherDisplay:10.37,2013-05-17 05:45:00,
2013-05-17 15:50:00,81.1,71.7,29.96,NE,55,6.0,10.0,73,0.00,OVC,,0.00,627.9,WeatherDisplay:10.37,2013-05-17 05:50:00,
2013-05-17 15:55:00,81.0,71.5,29.96,ENE,64,5.0,10.0,73,0.00,OVC,,0.00,630.2,WeatherDisplay:10.37,2013-05-17 05:55:00,
2013-05-17 16:00:00,81.7,71.8,29.97,NE,49,6.0,10.0,72,0.00,CLR,,0.00,601.2,WeatherDisplay:10.37,2013-05-17 06:00:00,
2013-05-17 16:05:00,81.9,72.0,29.96,NNE,32,6.0,9.0,72,0.00,CLR,,0.00,264.4,WeatherDisplay:10.37,2013-05-17 06:05:00,
2013-05-17 16:10:00,81.2,71.3,29.97,NE,44,6.0,11.0,72,0.00,CLR,,0.00,517.4,WeatherDisplay:10.37,2013-05-17 06:10:00,
2013-05-17 16:15:00,81.4,71.5,29.97,NE,55,6.0,9.0,72,0.00,CLR,,0.00,524.5,WeatherDisplay:10.37,2013-05-17 06:15:00,
2013-05-17 16:20:00,81.3,71.4,29.97,NE,47,8.0,10.0,72,0.00,CLR,,0.00,503.3,WeatherDisplay:10.37,2013-05-17 06:20:00,
2013-05-17 16:25:00,81.2,71.3,29.97,NE,34,7.0,11.0,72,0.00,CLR,,0.00,441.1,WeatherDisplay:10.37,2013-05-17 06:25:00,
2013-05-17 16:30:00,81.0,71.1,29.96,NNE,30,8.0,11.0,72,0.00,CLR,,0.00,425.9,WeatherDisplay:10.37,2013-05-17 06:30:00,
2013-05-17 16:35:00,81.3,71.4,29.97,NE,41,8.0,11.0,72,0.00,CLR,,0.00,414.7,WeatherDisplay:10.37,2013-05-17 06:35:00,
2013-05-17 16:40:00,81.0,71.1,29.97,NE,45,6.0,10.0,72,0.00,CLR,,0.00,368.7,WeatherDisplay:10.37,2013-05-17 06:40:00,
2013-05-17 16:45:00,81.2,71.3,29.97,NNE,23,7.0,10.0,72,0.00,CLR,,0.00,368.2,WeatherDisplay:10.37,2013-05-17 06:45:00,
2013-05-17 16:50:00,81.1,71.3,29.97,NNE,17,5.0,9.0,72,0.00,CLR,,0.00,304.0,WeatherDisplay:10.37,2013-05-17 06:50:00,
2013-05-17 16:55:00,80.9,71.0,29.98,NNE,22,9.0,13.0,72,0.00,CLR,,0.00,253.3,WeatherDisplay:10.37,2013-05-17 06:55:00,
2013-05-17 17:00:00,80.1,70.6,29.98,NE,39,8.0,13.0,73,0.00,CLR,,0.00,218.1,WeatherDisplay:10.37,2013-05-17 07:00:00,
2013-05-17 17:05:00,79.2,70.2,29.99,NNE,32,7.0,13.0,74,0.00,CLR,,0.00,189.6,WeatherDisplay:10.37,2013-05-17 07:05:00,
2013-05-17 17:10:00,78.8,70.2,29.99,NNE,24,8.0,13.0,75,0.00,CLR,,0.00,174.1,WeatherDisplay:10.37,2013-05-17 07:10:00,
2013-05-17 17:15:00,78.6,70.4,29.99,NE,38,6.0,10.0,76,0.00,CLR,,0.00,55.3,WeatherDisplay:10.37,2013-05-17 07:15:00,
2013-05-17 17:20:00,77.4,69.6,29.99,NE,51,8.0,15.0,77,0.00,CLR,,0.00,81.0,WeatherDisplay:10.37,2013-05-17 07:20:00,
2013-05-17 17:25:00,76.6,69.6,29.99,NE,53,6.0,11.0,79,0.00,CLR,,0.00,33.1,WeatherDisplay:10.37,2013-05-17 07:25:00,
2013-05-17 17:30:00,75.8,69.6,29.99,NE,49,7.0,10.0,81,0.00,CLR,,0.00,23.2,WeatherDisplay:10.37,2013-05-17 07:30:00,
2013-05-17 17:35:00,75.2,69.4,29.99,NE,45,5.0,10.0,82,0.00,CLR,,0.00,17.5,WeatherDisplay:10.37,2013-05-17 07:35:00,
2013-05-17 17:40:00,74.8,69.7,30.00,NE,45,5.0,9.0,84,0.00,CLR,,0.00,12.7,WeatherDisplay:10.37,2013-05-17 07:40:00,
2013-05-17 17:45:00,74.4,69.5,30.00,NE,45,6.0,10.0,85,0.00,CLR,,0.00,9.6,WeatherDisplay:10.37,2013-05-17 07:45:00,
2013-05-17 17:50:00,73.8,69.0,30.00,NE,54,7.0,12.0,85,0.00,CLR,,0.00,5.5,WeatherDisplay:10.37,2013-05-17 07:50:00,
2013-05-17 17:55:00,73.4,69.0,30.00,NE,41,5.0,8.0,86,0.00,CLR,,0.00,2.5,WeatherDisplay:10.37,2013-05-17 07:55:00,
2013-05-17 18:00:00,73.2,68.4,30.00,NE,37,6.0,10.0,85,0.00,CLR,,0.00,0.0,WeatherDisplay:10.37,2013-05-17 08:00:00,
2013-05-17 18:05:00,72.9,68.4,30.00,NE,45,8.0,10.0,86,0.00,CLR,,0.00,0.0,WeatherDisplay:10.37,2013-05-17 08:05:00,
2013-05-17 18:10:00,72.7,68.2,30.00,NE,35,7.0,10.0,86,0.00,CLR,,0.00,0.0,WeatherDisplay:10.37,2013-05-17 08:10:00,
2013-05-17 18:15:00,72.4,68.3,30.00,NE,40,6.0,10.0,87,0.00,CLR,,0.00,0.0,WeatherDisplay:10.37,2013-05-17 08:15:00,
2013-05-17 18:20:00,72.1,68.4,30.01,NNE,27,7.0,11.0,88,0.00,CLR,,0.00,0.0,WeatherDisplay:10.37,2013-05-17 08:20:00,
2013-05-17 18:25:00,72.1,68.4,30.01,North,7,7.0,10.0,88,0.00,CLR,,0.00,0.0,WeatherDisplay:10.37,2013-05-17 08:25:00,
2013-05-17 18:30:00,72.0,68.2,30.01,NNE,16,6.0,10.0,88,0.00,CLR,,0.00,0.0,WeatherDisplay:10.37,2013-05-17 08:30:00,
2013-05-17 18:35:00,72.0,68.5,30.01,NNE,20,6.0,10.0,89,0.00,CLR,,0.00,0.0,WeatherDisplay:10.37,2013-05-17 08:35:00,
2013-05-17 18:40:00,72.0,68.5,30.01,NNE,18,5.0,8.0,89,0.00,CLR,,0.00,0.0,WeatherDisplay:10.37,2013-05-17 08:40:00,
2013-05-17 18:50:00,71.8,68.4,30.02,NNE,26,6.0,13.0,89,0.00,CLR,,0.00,0.0,WeatherDisplay:10.37,2013-05-17 08:50:00,
2013-05-17 18:55:00,71.6,68.2,30.02,North,7,6.0,13.0,89,0.00,CLR,,0.00,0.0,WeatherDisplay:10.37,2013-05-17 08:55:00,
2013-05-17 19:00:00,71.6,68.2,30.02,North,356,6.0,9.0,89,0.00,CLR,,0.00,0.0,WeatherDisplay:10.37,2013-05-17 09:00:00,
2013-05-17 19:05:00,71.6,68.5,30.02,NNE,22,5.0,8.0,90,0.00,CLR,,0.00,0.0,WeatherDisplay:10.37,2013-05-17 09:05:00,
2013-05-17 19:15:00,71.4,68.6,30.02,ENE,62,5.0,7.0,91,0.00,CLR,,0.00,0.0,WeatherDisplay:10.37,2013-05-17 09:15:00,
2013-05-17 19:20:00,71.1,68.0,30.03,ENE,64,3.0,8.0,90,0.00,CLR,,0.00,0.0,WeatherDisplay:10.37,2013-05-17 09:20:00,
2013-05-17 19:25:00,70.9,68.1,30.03,ENE,69,5.0,8.0,91,0.00,CLR,,0.00,0.0,WeatherDisplay:10.37,2013-05-17 09:25:00,
2013-05-17 19:30:00,70.8,68.0,30.04,ENE,65,5.0,8.0,91,0.00,CLR,,0.00,0.0,WeatherDisplay:10.37,2013-05-17 09:30:00,
2013-05-17 19:35:00,70.6,67.8,30.04,NE,52,2.0,6.0,91,0.00,CLR,,0.00,0.0,WeatherDisplay:10.37,2013-05-17 09:35:00,
2013-05-17 19:40:00,70.3,67.6,30.04,NE,48,1.0,4.0,91,0.00,CLR,,0.00,0.0,WeatherDisplay:10.37,2013-05-17 09:40:00,
2013-05-17 19:45:00,70.3,67.6,30.04,NE,56,3.0,6.0,91,0.00,CLR,,0.00,0.0,WeatherDisplay:10.37,2013-05-17 09:45:00,
2013-05-17 19:50:00,70.3,67.6,30.05,NE,55,3.0,6.0,91,0.00,CLR,,0.00,0.0,WeatherDisplay:10.37,2013-05-17 09:50:00,
2013-05-17 19:55:00,70.3,67.6,30.04,NE,48,5.0,7.0,91,0.00,CLR,,0.00,0.0,WeatherDisplay:10.37,2013-05-17 09:55:00,
2013-05-17 20:00:00,70.2,67.4,30.05,NE,48,5.0,8.0,91,0.00,CLR,,0.00,0.0,WeatherDisplay:10.37,2013-05-17 10:00:00,
2013-05-17 20:05:00,70.2,67.4,30.05,NE,44,5.0,7.0,91,0.00,CLR,,0.00,0.0,WeatherDisplay:10.37,2013-05-17 10:05:00,
2013-05-17 20:10:00,70.2,67.4,30.05,NNE,31,5.0,8.0,91,0.00,CLR,,0.00,0.0,WeatherDisplay:10.37,2013-05-17 10:10:00,
2013-05-17 20:15:00,70.2,67.4,30.05,NNE,21,6.0,8.0,91,0.00,CLR,,0.00,0.0,WeatherDisplay:10.37,2013-05-17 10:15:00,
2013-05-17 20:20:00,70.2,67.4,30.05,North,5,6.0,8.0,91,0.00,CLR,,0.00,0.0,WeatherDisplay:10.37,2013-05-17 10:20:00,
2013-05-17 20:25:00,70.0,67.2,30.05,North,3,8.0,9.0,91,0.00,CLR,,0.00,0.0,WeatherDisplay:10.37,2013-05-17 10:25:00,
2013-05-17 20:30:00,70.0,67.2,30.05,NNE,15,3.0,9.0,91,0.00,CLR,,0.00,0.0,WeatherDisplay:10.37,2013-05-17 10:30:00,
2013-05-17 20:35:00,70.0,66.9,30.05,NNE,26,3.0,7.0,90,0.00,CLR,,0.00,0.0,WeatherDisplay:10.37,2013-05-17 10:35:00,
2013-05-17 20:40:00,69.8,66.7,30.05,NNE,27,5.0,7.0,90,0.00,CLR,,0.00,0.0,WeatherDisplay:10.37,2013-05-17 10:40:00,
2013-05-17 20:45:00,69.8,66.7,30.05,NNE,14,2.0,6.0,90,0.00,CLR,,0.00,0.0,WeatherDisplay:10.37,2013-05-17 10:45:00,
2013-05-17 20:50:00,69.6,67.2,30.06,North,5,2.0,5.0,92,0.00,CLR,,0.00,0.0,WeatherDisplay:10.37,2013-05-17 10:50:00,
2013-05-17 20:55:00,69.8,67.1,30.06,NNE,13,2.0,4.0,91,0.00,CLR,,0.00,0.0,WeatherDisplay:10.37,2013-05-17 10:55:00,
2013-05-17 21:00:00,69.8,67.1,30.06,NNE,19,2.0,4.0,91,0.00,CLR,,0.00,0.0,WeatherDisplay:10.37,2013-05-17 11:00:00,
2013-05-17 21:05:00,69.8,67.1,30.06,North,9,2.0,4.0,91,0.00,CLR,,0.00,0.0,WeatherDisplay:10.37,2013-05-17 11:05:00,
2013-05-17 21:10:00,69.8,67.1,30.06,North,0,1.0,3.0,91,0.00,CLR,,0.00,0.0,WeatherDisplay:10.37,2013-05-17 11:10:00,
2013-05-17 21:15:00,69.8,67.1,30.06,North,0,1.0,2.0,91,0.00,CLR,,0.00,0.0,WeatherDisplay:10.37,2013-05-17 11:15:00,
2013-05-17 21:20:00,69.8,67.1,30.06,North,0,1.0,3.0,91,0.00,CLR,,0.00,0.0,WeatherDisplay:10.37,2013-05-17 11:20:00,
2013-05-17 21:25:00,69.8,67.1,30.07,North,0,1.0,3.0,91,0.00,CLR,,0.00,0.0,WeatherDisplay:10.37,2013-05-17 11:25:00,
2013-05-17 21:30:00,69.8,67.1,30.07,North,0,1.0,2.0,91,0.00,CLR,,0.00,0.0,WeatherDisplay:10.37,2013-05-17 11:30:00,
2013-05-17 21:35:00,69.8,67.1,30.07,North,0,1.0,2.0,91,0.00,CLR,,0.00,0.0,WeatherDisplay:10.37,2013-05-17 11:35:00,
2013-05-17 21:40:00,69.8,67.1,30.07,North,0,1.0,2.0,91,0.00,CLR,,0.00,0.0,WeatherDisplay:10.37,2013-05-17 11:40:00,
2013-05-17 21:50:00,69.8,67.1,30.07,NNW,327,2.0,3.0,91,0.00,CLR,,0.00,0.0,WeatherDisplay:10.37,2013-05-17 11:50:00,
2013-05-17 21:55:00,69.8,67.4,30.07,NW,315,1.0,2.0,92,0.00,CLR,,0.00,0.0,WeatherDisplay:10.37,2013-05-17 11:55:00,
2013-05-17 22:00:00,69.8,67.4,30.07,NW,315,1.0,2.0,92,0.00,CLR,,0.00,0.0,WeatherDisplay:10.37,2013-05-17 12:00:00,
2013-05-17 22:05:00,69.8,67.4,30.07,NW,315,1.0,3.0,92,0.00,CLR,,0.00,0.0,WeatherDisplay:10.37,2013-05-17 12:05:00,
2013-05-17 22:10:00,69.8,67.4,30.07,NW,315,1.0,2.0,92,0.00,CLR,,0.00,0.0,WeatherDisplay:10.37,2013-05-17 12:10:00,
2013-05-17 22:15:00,69.9,67.5,30.07,NNW,328,2.0,5.0,92,0.00,CLR,,0.00,0.0,WeatherDisplay:10.37,2013-05-17 12:15:00,
2013-05-17 22:20:00,69.8,67.4,30.07,NNE,26,2.0,5.0,92,0.00,CLR,,0.00,0.0,WeatherDisplay:10.37,2013-05-17 12:20:00,
2013-05-17 22:25:00,69.8,67.4,30.08,NE,44,2.0,5.0,92,0.00,CLR,,0.00,0.0,WeatherDisplay:10.37,2013-05-17 12:25:00,
2013-05-17 22:30:00,69.8,67.4,30.07,NNE,31,3.0,5.0,92,0.00,CLR,,0.00,0.0,WeatherDisplay:10.37,2013-05-17 12:30:00,
2013-05-17 22:35:00,69.8,67.4,30.07,NNE,28,3.0,7.0,92,0.00,CLR,,0.00,0.0,WeatherDisplay:10.37,2013-05-17 12:35:00,
2013-05-17 22:40:00,69.8,67.4,30.07,NE,39,3.0,6.0,92,0.00,CLR,,0.00,0.0,WeatherDisplay:10.37,2013-05-17 12:40:00,
2013-05-17 22:45:00,69.6,67.5,30.07,NNE,33,3.0,6.0,93,0.00,CLR,,0.00,0.0,WeatherDisplay:10.37,2013-05-17 12:45:00,
2013-05-17 22:50:00,69.6,67.5,30.07,NNE,28,2.0,6.0,93,0.00,CLR,,0.00,0.0,WeatherDisplay:10.37,2013-05-17 12:50:00,
2013-05-17 22:55:00,69.6,67.5,30.07,NE,36,2.0,5.0,93,0.00,CLR,,0.00,0.0,WeatherDisplay:10.37,2013-05-17 12:55:00,
2013-05-17 23:00:00,69.6,67.5,30.07,NNE,16,1.0,4.0,93,0.00,CLR,,0.00,0.0,WeatherDisplay:10.37,2013-05-17 13:00:00,
2013-05-17 23:05:00,69.6,67.8,30.07,NNW,346,3.0,5.0,94,0.00,CLR,,0.00,0.0,WeatherDisplay:10.37,2013-05-17 13:05:00,
2013-05-17 23:10:00,69.6,67.8,30.07,North,352,2.0,4.0,94,0.00,CLR,,0.00,0.0,WeatherDisplay:10.37,2013-05-17 13:10:00,
2013-05-17 23:15:00,69.6,67.8,30.07,North,0,2.0,4.0,94,0.00,CLR,,0.00,0.0,WeatherDisplay:10.37,2013-05-17 13:15:00,
2013-05-17 23:20:00,69.6,67.8,30.07,NNE,13,3.0,6.0,94,0.00,CLR,,0.00,0.0,WeatherDisplay:10.37,2013-05-17 13:20:00,
2013-05-17 23:25:00,69.5,67.7,30.07,NNE,13,5.0,6.0,94,0.00,CLR,,0.00,0.0,WeatherDisplay:10.37,2013-05-17 13:25:00,
2013-05-17 23:30:00,69.4,67.6,30.07,NNE,22,3.0,6.0,94,0.00,CLR,,0.00,0.0,WeatherDisplay:10.37,2013-05-17 13:30:00,
2013-05-17 23:35:00,69.4,67.6,30.07,NE,48,2.0,6.0,94,0.00,CLR,,0.00,0.0,WeatherDisplay:10.37,2013-05-17 13:35:00,
2013-05-17 23:40:00,69.4,67.6,30.06,ENE,73,3.0,6.0,94,0.00,CLR,,0.00,0.0,WeatherDisplay:10.37,2013-05-17 13:40:00,
2013-05-17 23:45:00,69.3,67.5,30.07,NE,52,3.0,6.0,94,0.00,CLR,,0.00,0.0,WeatherDisplay:10.37,2013-05-17 13:45:00,
2013-05-17 23:50:00,69.3,67.5,30.07,NNE,28,3.0,6.0,94,0.00,CLR,,0.00,0.0,WeatherDisplay:10.37,2013-05-17 13:50:00,
2013-05-17 23:55:00,69.3,67.5,30.06,NNE,27,2.0,6.0,94,0.00,CLR,,0.00,0.0,WeatherDisplay:10.37,2013-05-17 13:55:00,